Weather History for Park Rapids, MN

Change the Weather History Date:

Wednesday, February 19, 2014

  Actual Average Record
Temperature  
Mean Temperature 22 °F -  
Max Temperature 39 °F 27 °F 50 °F (1981)
Min Temperature 6 °F 4 °F -33 °F (1959)
Degree Days  
Heating Degree Days 42    
Moisture  
Dew Point 16 °F    
Average Humidity 84    
Maximum Humidity 100    
Minimum Humidity 57    
Precipitation  
Precipitation 0.00 in - - ()
Sea Level Pressure  
Sea Level Pressure 29.69 in    
Wind  
Wind Speed 8 mph (SSW)    
Max Wind Speed 20 mph    
Max Gust Speed 25 mph    
Visibility 5 miles    
Events Fog    
Averages and records for this station are not official NWS values.
T = Trace of Precipitation, MM = Missing Value Source: NWS Daily Summary

Daily Weather History Graph

Daily Weather History Graph

Search for Another Location

Airport:

Trip Planner

Search our weather history database for the weather conditions in past years. The results will help you decide how hot, cold, wet, or windy it might be!

Date:

Astronomy

Feb. 19, 2014 Rise Set
Actual Time 7:17 AM CST 5:51 PM CST
Civil Twilight 6:46 AM CST 6:22 PM CST
Nautical Twilight 6:11 AM CST 6:57 PM CST
Astronomical Twilight 5:36 AM CST 7:32 PM CST
Moon 11:06 PM CST (2/19) 9:04 AM CST (2/19)
Length of Visible Light 11h 35m
Length of Day
10h 33m
Waning Gibbous, 79% of the Moon is Illuminated
Feb 19
Waning Gibbous
Feb 22
Last Quarter
Mar 1
New
Mar 8
First Quarter
Mar 16
Full

Hourly Weather History & Observations

Time (CST) Temp. Windchill Dew Point Humidity Pressure Visibility Wind Dir Wind Speed Gust Speed Precip Events Conditions
12:53 AM 18.0 °F 5.4 °F 15.1 °F 88% 29.75 in 10.0 mi West 11.5 mph - N/A   Clear
1:53 AM 14.0 °F 2.0 °F 12.0 °F 92% 29.76 in 10.0 mi West 9.2 mph - N/A   Clear
2:53 AM 18.0 °F 11.1 °F 16.0 °F 92% 29.75 in 7.0 mi West 4.6 mph - N/A   Clear
3:53 AM 12.9 °F 5.2 °F 10.9 °F 92% 29.76 in 3.0 mi SSW 4.6 mph - N/A   Clear
3:56 AM 14.0 °F 8.2 °F 12.0 °F 92% 29.69 in 1.2 mi SSW 3.5 mph - N/A   Clear
4:00 AM 10.9 °F 2.9 °F 10.9 °F 100% 29.69 in 0.2 mi South 4.6 mph - N/A Fog Light Freezing Fog
4:21 AM 7.0 °F - 7.0 °F 100% 29.69 in 0.5 mi Calm Calm - N/A Fog Light Freezing Fog
4:29 AM 6.1 °F -2.8 °F 6.1 °F 100% 29.69 in 0.2 mi SW 4.6 mph - N/A Fog Light Freezing Fog
4:53 AM 8.1 °F -3.2 °F 7.0 °F 95% 29.77 in 0.2 mi SW 6.9 mph - N/A Fog Light Freezing Fog
5:15 AM 10.0 °F -2.9 °F 8.1 °F 92% 29.69 in 1.0 mi SW 9.2 mph - N/A   Clear
5:18 AM 10.9 °F -1.8 °F 10.0 °F 96% 29.69 in 3.0 mi SW 9.2 mph - N/A   Clear
5:53 AM 10.0 °F 0.4 °F 7.0 °F 87% 29.76 in 4.0 mi SW 5.8 mph - N/A   Clear
6:12 AM 10.9 °F 1.4 °F 9.0 °F 92% 29.69 in 1.5 mi SW 5.8 mph - N/A   Clear
6:20 AM 10.0 °F 1.8 °F 8.1 °F 92% 29.68 in 0.2 mi SW 4.6 mph - N/A Fog Light Freezing Fog
6:36 AM 10.9 °F 2.9 °F 8.1 °F 88% 29.68 in 1.0 mi SSW 4.6 mph - N/A   Clear
6:50 AM 10.4 °F 2.2 °F 8.6 °F 92% 29.69 in 0.5 mi SW 4.6 mph - N/A Fog Light Freezing Fog
6:53 AM 10.0 °F 0.4 °F 8.1 °F 92% 29.77 in 0.2 mi SW 5.8 mph - N/A Fog Light Freezing Fog
7:12 AM 12.0 °F 4.1 °F 9.0 °F 88% 29.68 in 1.0 mi SW 4.6 mph - N/A   Clear
7:25 AM 10.9 °F 2.9 °F 10.0 °F 96% 29.68 in 0.5 mi SW 4.6 mph - N/A Fog Light Freezing Fog
7:42 AM 10.9 °F 0.2 °F 10.0 °F 96% 29.68 in 0.2 mi SSW 6.9 mph - N/A Fog Light Freezing Fog
7:53 AM 10.9 °F 1.4 °F 10.0 °F 96% 29.77 in 0.2 mi SW 5.8 mph - N/A Fog Light Freezing Fog
8:19 AM 14.0 °F 8.2 °F 12.9 °F 95% 29.69 in 1.2 mi SW 3.5 mph - N/A   Clear
8:26 AM 14.0 °F - 12.9 °F 95% 29.69 in 3.0 mi Calm Calm - N/A   Clear
8:53 AM 19.0 °F 12.3 °F 19.0 °F 100% 29.78 in 5.0 mi SW 4.6 mph - N/A   Clear
9:53 AM 24.1 °F 16.0 °F 21.9 °F 91% 29.76 in 10.0 mi SW 6.9 mph - N/A   Clear
10:53 AM 30.0 °F 21.1 °F 23.0 °F 75% 29.75 in 10.0 mi SW 10.4 mph - N/A   Clear
11:53 AM 33.1 °F 22.6 °F 21.9 °F 64% 29.74 in 10.0 mi SW 16.1 mph - N/A   Clear
12:53 PM 36.0 °F 28.5 °F 23.0 °F 59% 29.71 in 10.0 mi SSW 10.4 mph - N/A   Clear
1:53 PM 37.0 °F 30.4 °F 26.1 °F 65% 29.70 in 10.0 mi South 9.2 mph - N/A   Mostly Cloudy
2:53 PM 39.0 °F 32.3 °F 26.1 °F 60% 29.67 in 10.0 mi SSE 10.4 mph - N/A   Clear
3:53 PM 37.9 °F 30.5 °F 26.1 °F 62% 29.66 in 10.0 mi SE 11.5 mph - N/A   Clear
4:53 PM 37.9 °F 30.5 °F 25.0 °F 60% 29.65 in 10.0 mi SE 11.5 mph - N/A   Mostly Cloudy
5:53 PM 37.9 °F 30.0 °F 24.1 °F 57% 29.64 in 10.0 mi SE 12.7 mph - N/A   Overcast
6:53 PM 36.0 °F 26.7 °F 25.0 °F 64% 29.63 in 10.0 mi SE 15.0 mph - N/A   Overcast
7:53 PM 35.1 °F 24.1 °F 26.1 °F 70% 29.61 in 10.0 mi SE 19.6 mph 25.3 mph N/A   Mostly Cloudy
8:53 PM 34.0 °F 24.6 °F 26.1 °F 73% 29.59 in 10.0 mi SE 13.8 mph - N/A   Overcast
9:53 PM 34.0 °F 24.6 °F 27.0 °F 75% 29.58 in 10.0 mi SSE 13.8 mph - N/A   Scattered Clouds
10:53 PM 34.0 °F 24.2 °F 27.0 °F 75% 29.57 in 10.0 mi SSE 15.0 mph - N/A   Clear
11:53 PM 33.1 °F 23.4 °F 27.0 °F 78% 29.55 in 10.0 mi SSE 13.8 mph - N/A   Partly Cloudy